• In Germany
  • List of Countries
  • For 7 days
  • Water Temperature
  • Satellite Maps
  • Weather Map
  • Weather Widgets
  • user-avatar
    Login

    Hourly Weather Viedma

    Today, 25 July, Tuesday

    Time Temperature Precipitation Wind Pressure Humidity
    00:00 +9°C° 0 mm 5 mps 763 mmHg 41%
    01:00 +8°C° 0 mm 5 mps 763 mmHg 40%
    02:00 +8°C° 0 mm 4 mps 763 mmHg 40%
    03:00 +8°C° 0 mm 4 mps 763 mmHg 40%
    04:00 +8°C° 0 mm 4 mps 763 mmHg 40%
    05:00 +7°C° 0 mm 4 mps 763 mmHg 40%
    06:00 +7°C° 0 mm 4 mps 764 mmHg 42%
    07:00 +7°C° 0 mm 4 mps 764 mmHg 43%
    08:00 +7°C° 0 mm 4 mps 764 mmHg 44%
    09:00 +10°C° 0 mm 4 mps 764 mmHg 41%
    10:00 +12°C° 0 mm 5 mps 764 mmHg 37%
    11:00 +13°C° 0 mm 5 mps 765 mmHg 34%
    12:00 +15°C° 0 mm 5 mps 764 mmHg 32%
    13:00 +16°C° 0 mm 6 mps 764 mmHg 31%
    14:00 +17°C° 0 mm 6 mps 763 mmHg 29%
    15:00 +16°C° 0 mm 5 mps 763 mmHg 32%
    16:00 +15°C° 0 mm 5 mps 763 mmHg 35%
    17:00 +14°C° 0 mm 4 mps 763 mmHg 38%
    18:00 +13°C° 0 mm 5 mps 763 mmHg 42%
    19:00 +13°C° 0 mm 5 mps 763 mmHg 46%
    20:00 +11°C° 0 mm 6 mps 763 mmHg 50%
    21:00 +11°C° 0 mm 6 mps 763 mmHg 49%
    22:00 +12°C° 0 mm 7 mps 763 mmHg 49%
    23:00 +12°C° 0 mm 7 mps 763 mmHg 49%

    Tomorrow, 26 July, Wednesday

    Time Temperature Precipitation Wind Pressure Humidity
    00:00 +12°C° 0 mm 7 mps 763 mmHg 49%
    01:00 +11°C° 0 mm 6 mps 763 mmHg 49%
    02:00 +11°C° 0 mm 6 mps 762 mmHg 49%
    03:00 +10°C° 0 mm 6 mps 762 mmHg 52%
    04:00 +10°C° 0 mm 5 mps 762 mmHg 55%
    05:00 +9°C° 0 mm 5 mps 762 mmHg 58%
    06:00 +9°C° 0 mm 5 mps 762 mmHg 61%
    07:00 +8°C° 0 mm 5 mps 762 mmHg 65%
    08:00 +8°C° 0 mm 5 mps 762 mmHg 69%
    09:00 +9°C° 0 mm 5 mps 762 mmHg 65%
    10:00 +12°C° 0 mm 5 mps 762 mmHg 62%
    11:00 +13°C° 0 mm 5 mps 762 mmHg 58%
    12:00 +15°C° 0 mm 5 mps 762 mmHg 55%
    13:00 +16°C° 0 mm 5 mps 761 mmHg 52%
    14:00 +17°C° 0 mm 6 mps 760 mmHg 49%
    15:00 +16°C° 0 mm 5 mps 760 mmHg 52%
    16:00 +15°C° 0 mm 5 mps 760 mmHg 56%
    17:00 +15°C° 0 mm 5 mps 759 mmHg 59%
    18:00 +14°C° 0 mm 5 mps 759 mmHg 64%
    19:00 +13°C° 0 mm 5 mps 759 mmHg 70%
    20:00 +12°C° 0 mm 5 mps 759 mmHg 75%
    21:00 +12°C° 0 mm 5 mps 759 mmHg 78%
    22:00 +12°C° 0 mm 5 mps 759 mmHg 80%
    23:00 +12°C° 0 mm 5 mps 759 mmHg 83%

    Day after tomorrow, 27 July, Thursday

    Time Temperature Precipitation Wind Pressure Humidity
    00:00 +10°C° 0 mm 5 mps 759 mmHg 85%
    01:00 +10°C° 0 mm 5 mps 759 mmHg 87%
    02:00 +10°C° 0 mm 5 mps 759 mmHg 89%
    03:00 +10°C° 0 mm 5 mps 758 mmHg 90%
    04:00 +10°C° 0 mm 5 mps 758 mmHg 91%
    05:00 +10°C° 0 mm 6 mps 758 mmHg 92%
    06:00 +10°C° 0 mm 6 mps 758 mmHg 93%
    07:00 +10°C° 0 mm 5 mps 758 mmHg 94%
    08:00 +10°C° 0 mm 5 mps 758 mmHg 95%
    09:00 +13°C° 0 mm 6 mps 758 mmHg 90%
    10:00 +14°C° 0 mm 6 mps 758 mmHg 84%
    11:00 +15°C° 0 mm 6 mps 758 mmHg 79%
    12:00 +16°C° 0 mm 6 mps 757 mmHg 76%
    13:00 +16°C° 0 mm 6 mps 757 mmHg 74%
    14:00 +17°C° 0 mm 5 mps 757 mmHg 71%
    15:00 +17°C° 0 mm 4 mps 757 mmHg 74%
    16:00 +17°C° 0 mm 4 mps 757 mmHg 77%
    17:00 +16°C° 0 mm 3 mps 757 mmHg 79%
    18:00 +16°C° 0 mm 3 mps 757 mmHg 82%
    19:00 +15°C° 0 mm 2 mps 757 mmHg 85%
    20:00 +14°C° 0 mm 2 mps 757 mmHg 88%
    21:00 +14°C° 0 mm 2 mps 757 mmHg 89%
    22:00 +13°C° 0 mm 3 mps 757 mmHg 90%
    23:00 +12°C° 0 mm 3 mps 758 mmHg 91%

    28 July, Friday

    Time Temperature Precipitation Wind Pressure Humidity
    00:00 +13°C° 0 mm 2 mps 757 mmHg 91%
    01:00 +13°C° 0 mm 2 mps 757 mmHg 92%
    02:00 +13°C° 0 mm 2 mps 757 mmHg 92%
    03:00 +12°C° 0 mm 2 mps 757 mmHg 92%
    04:00 +12°C° 0 mm 1 mps 757 mmHg 93%
    05:00 +12°C° 0 mm 1 mps 757 mmHg 93%
    06:00 +12°C° 0 mm 1 mps 757 mmHg 94%
    07:00 +13°C° 0 mm 2 mps 757 mmHg 94%
    08:00 +13°C° 0 mm 2 mps 757 mmHg 94%
    09:00 +15°C° 0 mm 2 mps 757 mmHg 89%
    10:00 +16°C° 0 mm 2 mps 757 mmHg 84%
    11:00 +18°C° 0 mm 3 mps 757 mmHg 78%
    12:00 +19°C° 0 mm 3 mps 756 mmHg 75%
    13:00 +20°C° 0 mm 2 mps 756 mmHg 72%
    14:00 +20°C° 0 mm 2 mps 755 mmHg 69%
    15:00 +19°C° 0 mm 2 mps 755 mmHg 74%
    16:00 +18°C° 0 mm 2 mps 755 mmHg 79%
    17:00 +18°C° 0 mm 2 mps 754 mmHg 83%
    18:00 +17°C° 0 mm 2 mps 754 mmHg 87%
    19:00 +16°C° 0 mm 2 mps 754 mmHg 90%
    20:00 +16°C° 0 mm 2 mps 755 mmHg 94%
    21:00 +15°C° 0 mm 2 mps 754 mmHg 95%
    22:00 +15°C° 0 mm 1 mps 754 mmHg 95%
    23:00 +15°C° 0 mm 1 mps 754 mmHg 96%

    29 July, Saturday

    Time Temperature Precipitation Wind Pressure Humidity
    00:00 +15°C° 0 mm 1 mps 754 mmHg 95%
    01:00 +15°C° 0 mm 1 mps 754 mmHg 95%
    02:00 +15°C° 0 mm 1 mps 754 mmHg 94%
    03:00 +15°C° 0 mm 2 mps 754 mmHg 92%
    04:00 +14°C° 0 mm 3 mps 754 mmHg 90%
    05:00 +14°C° 0 mm 3 mps 754 mmHg 89%
    06:00 +14°C° 0 mm 4 mps 754 mmHg 81%
    07:00 +13°C° 0 mm 5 mps 755 mmHg 74%
    08:00 +13°C° 0 mm 5 mps 755 mmHg 67%
    09:00 +12°C° 0 mm 7 mps 756 mmHg 61%
    10:00 +13°C° 0 mm 8 mps 756 mmHg 56%
    11:00 +13°C° 0 mm 9 mps 757 mmHg 51%
    12:00 +13°C° 0 mm 9 mps 757 mmHg 45%
    13:00 +13°C° 0 mm 10 mps 757 mmHg 39%
    14:00 +13°C° 0 mm 10 mps 757 mmHg 34%
    15:00 +12°C° 0 mm 8 mps 758 mmHg 35%
    16:00 +11°C° 0 mm 7 mps 759 mmHg 36%
    17:00 +12°C° 0 mm 5 mps 759 mmHg 37%
    18:00 +10°C° 0 mm 5 mps 760 mmHg 41%
    19:00 +9°C° 0 mm 5 mps 761 mmHg 45%
    20:00 +9°C° 0 mm 6 mps 762 mmHg 49%
    21:00 +8°C° 0 mm 6 mps 763 mmHg 51%
    22:00 +8°C° 0 mm 6 mps 763 mmHg 53%
    23:00 +8°C° 0 mm 6 mps 764 mmHg 55%

    30 July, Sunday

    Time Temperature Precipitation Wind Pressure Humidity
    00:00 +7°C° 0 mm 5 mps 765 mmHg 56%
    01:00 +7°C° 0 mm 4 mps 765 mmHg 56%
    02:00 +6°C° 0 mm 4 mps 766 mmHg 57%
    03:00 +6°C° 0 mm 4 mps 766 mmHg 57%
    04:00 +6°C° 0 mm 4 mps 766 mmHg 57%
    05:00 +5°C° 0 mm 4 mps 767 mmHg 57%
    06:00 +5°C° 0 mm 3 mps 767 mmHg 57%
    07:00 +5°C° 0 mm 3 mps 768 mmHg 57%
    08:00 +5°C° 0 mm 3 mps 768 mmHg 57%
    09:00 +8°C° 0 mm 3 mps 769 mmHg 52%
    10:00 +9°C° 0 mm 3 mps 769 mmHg 46%
    11:00 +10°C° 0 mm 3 mps 769 mmHg 41%
    12:00 +10°C° 0 mm 3 mps 769 mmHg 40%
    13:00 +11°C° 0 mm 3 mps 768 mmHg 39%
    14:00 +11°C° 0 mm 3 mps 768 mmHg 38%
    15:00 +10°C° 0 mm 2 mps 768 mmHg 41%
    16:00 +9°C° 0 mm 2 mps 768 mmHg 44%
    17:00 +9°C° 0 mm 2 mps 768 mmHg 47%
    18:00 +9°C° 0 mm 1 mps 768 mmHg 51%
    19:00 +8°C° 0 mm 1 mps 768 mmHg 55%
    20:00 +7°C° 0 mm 1 mps 768 mmHg 60%
    21:00 +6°C° 0 mm 2 mps 767 mmHg 61%
    22:00 +6°C° 0 mm 2 mps 767 mmHg 62%
    23:00 +4°C° 0 mm 3 mps 767 mmHg 64%
    Show more